Weather reports worldwide

Advertisment
Preston, Moor Park, United Kingdom (99113): temperature & dewpoint: 02.07.2020 06:00:00 - 08.07.2020 06:00:00 (BST)Preston, Moor Park, United Kingdom (99113): precipitation: 02.07.2020 06:00:00 - 08.07.2020 06:00:00 (BST)
Date & Time tt [°C] td [°C] rr [mm]
08.07.2020 06:00:00 11,3 10,7 0,0
08.07.2020 05:00:00 11,3 10,8 0,2
08.07.2020 04:00:00 11,4 11,1 0,0
08.07.2020 03:00:00 11,3 11,1 0,0
08.07.2020 02:00:00 11,2 11,0 1,0
08.07.2020 01:00:00 11,3 11,0 1,0
08.07.2020 00:00:00 11,4 11,1 0,8
07.07.2020 23:00:00 11,5 11,2 0,6
07.07.2020 22:00:00 11,7 11,3 0,0
07.07.2020 21:00:00 11,7 11,2 0,2
07.07.2020 20:00:00 12,1 11,2 0,0
07.07.2020 19:00:00 12,1 10,8 0,2
07.07.2020 18:00:00 11,7 10,6 0,2
07.07.2020 17:00:00 12,4 11,1 0,4
07.07.2020 16:00:00 12,1 10,9 1,4
07.07.2020 15:00:00 12,4 10,6 0,8
07.07.2020 14:00:00 13,7 10,6 0,0
07.07.2020 13:00:00 12,9 11,3 0,6
07.07.2020 12:00:00 13,2 10,2 0,0
07.07.2020 11:00:00 13,2 10,1 0,0
07.07.2020 10:00:00 12,7 10,1 0,6
07.07.2020 09:00:00 13,9 10,5 0,0
07.07.2020 08:00:00 13,8 10,6 0,0
07.07.2020 07:00:00 12,4 10,8 0,0
07.07.2020 06:00:00 11,0 9,5 0,0
07.07.2020 05:00:00 11,4 9,7 0,0
07.07.2020 04:00:00 11,5 9,5 0,0
07.07.2020 03:00:00 11,7 10,1 0,0
07.07.2020 02:00:00 12,1 10,3 0,0
07.07.2020 01:00:00 12,3 9,8 0,0
07.07.2020 00:00:00 12,6 10,5 0,0
06.07.2020 23:00:00 12,5 10,0 0,0
06.07.2020 22:00:00 12,7 9,7 0,0
06.07.2020 21:00:00 14,0 9,2 0,0
06.07.2020 20:00:00 14,7 9,3 0,0
06.07.2020 19:00:00 15,6 8,3 0,0
06.07.2020 18:00:00 16,1 6,9 0,0
06.07.2020 17:00:00 17,4 8,1 0,0
06.07.2020 16:00:00 17,2 9,1 0,0
06.07.2020 15:00:00 16,9 9,0 0,0
06.07.2020 14:00:00 16,9 10,0 0,0
06.07.2020 13:00:00 16,1 10,0 0,0
06.07.2020 12:00:00 15,9 11,0 0,0
06.07.2020 11:00:00 15,9 10,9 0,0
06.07.2020 10:00:00 14,0 9,4 0,0
06.07.2020 09:00:00 14,2 10,8 0,0
06.07.2020 08:00:00 12,8 10,1 0,2
06.07.2020 07:00:00 12,6 9,6 0,0
06.07.2020 06:00:00 12,0 9,7 0,0
06.07.2020 05:00:00 12,2 8,8 0,0
06.07.2020 04:00:00 12,3 9,1 0,0
06.07.2020 03:00:00 12,5 9,3 0,0
06.07.2020 02:00:00 12,3 9,0 0,0
06.07.2020 01:00:00 12,2 9,5 0,4
06.07.2020 00:00:00 13,1 9,7 0,0
05.07.2020 23:00:00 13,3 9,9 0,0
05.07.2020 22:00:00 13,4 9,9 0,0
05.07.2020 21:00:00 13,7 10,0 0,0
05.07.2020 20:00:00 14,0 9,9 0,2
05.07.2020 19:00:00 14,6 9,2 0,0
05.07.2020 18:00:00 16,1 9,5 0,0
05.07.2020 17:00:00 16,3 11,1 0,0
05.07.2020 16:00:00 12,7 10,0 2,6
05.07.2020 15:00:00 15,1 9,1 0,0
05.07.2020 14:00:00 15,7 10,0 0,0
05.07.2020 13:00:00 14,6 8,9 0,0
05.07.2020 12:00:00 14,3 8,6 0,0
05.07.2020 11:00:00 13,7 9,3 0,0
05.07.2020 10:00:00 13,4 9,0 0,0
05.07.2020 09:00:00 13,6 10,0 0,4
05.07.2020 08:00:00 13,6 10,2 0,0
05.07.2020 07:00:00 13,6 10,6 0,0
05.07.2020 06:00:00 14,1 11,7 0,0
05.07.2020 05:00:00 15,1 13,2 0,0
05.07.2020 04:00:00 15,4 14,1 0,0
05.07.2020 03:00:00 16,3 14,7 0,0
05.07.2020 02:00:00 16,4 14,5 0,0
05.07.2020 01:00:00 16,1 14,3 0,0
05.07.2020 00:00:00 15,2 14,6 1,8
04.07.2020 23:00:00 16,1 14,4 0,0
04.07.2020 22:00:00 16,2 14,7 0,0
04.07.2020 21:00:00 15,9 14,9 0,0
04.07.2020 20:00:00 15,6 15,3 0,0
04.07.2020 19:00:00 15,4 15,1 0,2
04.07.2020 18:00:00 15,3 15,1 0,6
04.07.2020 17:00:00 15,5 15,2 0,6
04.07.2020 16:00:00 15,6 15,2 1,0
04.07.2020 15:00:00 16,0 15,7 0,6
04.07.2020 14:00:00 15,8 15,5 1,0
04.07.2020 13:00:00 15,3 15,1 1,2
04.07.2020 12:00:00 15,3 15,2 0,8
04.07.2020 11:00:00 15,5 15,4 1,2
04.07.2020 10:00:00 15,4 15,3 0,6
04.07.2020 09:00:00 15,1 15,0 1,0
04.07.2020 08:00:00 15,1 15,0 1,4
04.07.2020 07:00:00 14,9 14,9 1,4
04.07.2020 06:00:00 14,9 14,8 2,0
04.07.2020 05:00:00 14,9 14,8 2,0
04.07.2020 04:00:00 14,9 14,7 1,4
04.07.2020 03:00:00 15,0 14,9 1,4
04.07.2020 02:00:00 15,0 14,8 3,6
04.07.2020 01:00:00 14,9 14,7 2,2
04.07.2020 00:00:00 14,9 14,6 0,4
03.07.2020 23:00:00 14,9 14,5 2,0
03.07.2020 22:00:00 15,1 14,5 0,0
03.07.2020 21:00:00 15,2 14,6 0,0
03.07.2020 20:00:00 15,0 14,5 1,2
03.07.2020 19:00:00 15,6 13,9 0,0
03.07.2020 18:00:00 15,7 13,9 0,0
03.07.2020 17:00:00 15,0 14,1 1,8
03.07.2020 16:00:00 15,3 13,8 1,2
03.07.2020 15:00:00 15,2 14,0 0,8
03.07.2020 14:00:00 16,3 13,4 0,0
03.07.2020 13:00:00 15,1 13,7 0,0
03.07.2020 12:00:00 14,2 13,5 1,4
03.07.2020 11:00:00 13,5 13,2 4,0
03.07.2020 10:00:00 13,0 12,7 4,2
03.07.2020 09:00:00 12,2 11,9 4,6
03.07.2020 08:00:00 11,8 11,3 1,8
03.07.2020 07:00:00 12,2 11,8 2,2
03.07.2020 06:00:00 12,2 11,6 2,4
03.07.2020 05:00:00 12,5 11,3 0,4
03.07.2020 04:00:00 12,6 11,0 0,4
03.07.2020 03:00:00 13,0 10,7 0,0
03.07.2020 02:00:00 12,8 10,8 0,0
03.07.2020 01:00:00 12,3 10,9 0,0
03.07.2020 00:00:00 12,2 11,0 0,0
02.07.2020 23:00:00 12,2 10,8 0,0
02.07.2020 22:00:00 12,8 10,9 0,0
02.07.2020 21:00:00 13,4 10,3 0,0
02.07.2020 20:00:00 15,2 11,1 0,0
02.07.2020 19:00:00 16,1 11,8 0,0
02.07.2020 18:00:00 16,5 12,0 0,0
02.07.2020 17:00:00 16,6 12,8 0,0
02.07.2020 16:00:00 15,9 12,2 0,0
02.07.2020 15:00:00 14,5 11,9 0,0
02.07.2020 14:00:00 13,6 12,0 0,0
02.07.2020 13:00:00 13,1 11,9 0,0
02.07.2020 12:00:00 12,2 11,5 0,4
02.07.2020 11:00:00 12,0 11,1 0,4
02.07.2020 10:00:00 11,9 10,8 0,0
02.07.2020 09:00:00 11,5 10,8 0,0
02.07.2020 08:00:00 11,7 11,2 0,2
02.07.2020 07:00:00 11,5 11,2 2,0
02.07.2020 06:00:00 11,7 11,3 2,2

tt = temperature
td = dewpoint
rr = precipitation

Next stations